DW0148 Weather Reports


time (UTC)temp
C
wind
direction
speed
KPH
gust
KPH
rain 1hr
cm
rain 24hr
cm
rain mn
cm
humidity
%
barometer
mb
20260506012434 20 148 3.2 11.3 0.00 0.00 0.00 52 1008.8
20260506011933 20 177 1.6 9.7 0.00 0.00 0.00 53 1008.8
20260506011431 20 228 3.2 9.7 0.00 0.00 0.00 52 1008.8
20260506010930 20 189 1.6 9.7 0.00 0.00 0.00 52 1008.8
20260506010429 20 208 1.6 6.4 0.00 0.00 0.00 53 1008.5
20260506005824 19 223 3.2 4.8 0.00 0.00 0.00 55 1008.5
20260506005322 19 184 3.2 3.2 0.00 0.00 0.00 54 1008.8
20260506004821 20 153 1.6 6.4 0.00 0.00 0.00 55 1008.8
20260506004248 20 149 1.6 6.4 0.00 0.00 0.00 55 1008.8
20260506003746 20 159 0.0 6.4 0.00 0.00 0.00 52 1008.8
20260506003245 20 206 3.2 6.4 0.00 0.00 0.00 51 1008.8
20260506002744 21 187 0.0 3.2 0.00 0.00 0.00 50 1008.8
20260506002243 21 168 1.6 6.4 0.00 0.00 0.00 50 1008.8
20260506001742 21 230 3.2 8.0 0.00 0.00 0.00 48 1008.8
20260506001138 21 246 1.6 8.0 0.00 0.00 0.00 48 1008.8
20260506000637 22 222 1.6 8.0 0.00 0.00 0.00 48 1008.8
20260506000136 22 223 1.6 9.7 0.00 0.00 0.00 48 1009.1
20260505235603 22 221 3.2 11.3 0.00 0.00 0.00 46 1009.1
20260505235102 22 241 3.2 14.5 0.00 0.00 0.00 46 1009.1
20260505234601 22 221 3.2 14.5 0.00 0.00 0.00 46 1009.1
20260505234028 22 193 3.2 14.5 0.00 0.00 0.00 46 1009.5
20260505233527 22 229 4.8 14.5 0.00 0.00 0.00 45 1009.5
20260505233026 22 201 4.8 12.9 0.00 0.00 0.00 45 1009.1
20260505232525 22 224 4.8 17.7 0.00 0.00 0.00 45 1009.1
20260505232024 22 202 4.8 17.7 0.00 0.00 0.00 47 1009.1
20260505231521 23 231 6.4 20.9 0.00 0.00 0.00 44 1009.1
20260505230949 23 244 8.0 20.9 0.00 0.00 0.00 43 1008.8
20260505230448 23 135 6.4 20.9 0.00 0.00 0.00 43 1008.8
20260505225947 23 217 4.8 20.9 0.00 0.00 0.00 43 1008.8
20260505225445 23 233 3.2 22.5 0.00 0.00 0.00 43 1008.8
20260505224944 23 215 4.8 22.5 0.00 0.00 0.00 43 1008.8
20260505224443 23 226 9.7 22.5 0.00 0.00 0.00 41 1008.8
20260505223942 23 240 4.8 14.5 0.00 0.00 0.00 43 1008.8
20260505223441 23 213 6.4 20.9 0.00 0.00 0.00 41 1008.8
20260505222940 24 215 8.0 20.9 0.00 0.00 0.00 41 1008.8
20260505222439 24 227 3.2 20.9 0.00 0.00 0.00 42 1008.8
20260505221938 24 214 8.0 20.9 0.00 0.00 0.00 43 1008.8
20260505221437 24 110 4.8 17.7 0.00 0.00 0.00 45 1008.5
20260505220936 24 197 3.2 17.7 0.00 0.00 0.00 45 1008.8
20260505220435 24 233 4.8 19.3 0.00 0.00 0.00 45 1008.8
20260505215934 25 234 4.8 19.3 0.00 0.00 0.00 45 1008.8
20260505215433 25 234 8.0 16.1 0.00 0.00 0.00 45 1008.8
20260505214932 24 236 3.2 16.1 0.00 0.00 0.00 47 1008.8
20260505214431 24 221 4.8 11.3 0.00 0.00 0.00 49 1008.8
20260505213930 24 193 3.2 11.3 0.00 0.00 0.00 47 1008.8
20260505213429 24 239 3.2 19.3 0.00 0.00 0.00 49 1008.8
20260505212856 24 242 3.2 19.3 0.00 0.00 0.00 48 1008.8
20260505212354 25 233 6.4 19.3 0.00 0.00 0.00 46 1008.8
20260505211853 25 225 8.0 19.3 0.00 0.00 0.00 45 1009.1
20260505211353 25 214 4.8 16.1 0.00 0.00 0.00 46 1008.8
20260505210819 25 240 9.7 17.7 0.00 0.00 0.00 45 1008.8
20260505210318 25 279 6.4 22.5 0.00 0.00 0.00 46 1008.8
20260505205816 25 229 6.4 22.5 0.00 0.00 0.00 46 1008.8
20260505205315 24 252 4.8 22.5 0.00 0.00 0.00 44 1009.1
20260505204814 25 224 11.3 22.5 0.00 0.00 0.00 45 1009.1
20260505204313 25 222 3.2 19.3 0.00 0.00 0.00 47 1009.1
20260505203811 25 196 4.8 14.5 0.00 0.00 0.00 47 1009.1
20260505203310 25 225 6.4 14.5 0.00 0.00 0.00 46 1009.5
20260505202808 25 231 6.4 19.3 0.00 0.00 0.00 47 1009.5
20260505202307 25 235 8.0 20.9 0.00 0.00 0.00 46 1009.8
20260505201703 25 198 4.8 20.9 0.00 0.00 0.00 47 1009.8
20260505201202 25 232 8.0 19.3 0.00 0.00 0.00 45 1009.8
20260505200700 25 245 8.0 19.3 0.00 0.00 0.00 46 1010.2
20260505200159 25 241 8.0 19.3 0.00 0.00 0.00 44 1010.2
20260505195657 25 227 6.4 14.5 0.00 0.00 0.00 45 1010.2
20260505195157 25 240 3.2 14.5 0.00 0.00 0.00 46 1010.2
20260505194656 25 240 3.2 14.5 0.00 0.00 0.00 44 1010.2
20260505194154 25 222 6.4 16.1 0.00 0.00 0.00 47 1010.2
20260505193653 24 167 3.2 16.1 0.00 0.00 0.00 47 1010.2
20260505193151 24 235 4.8 17.7 0.00 0.00 0.00 48 1010.5
20260505192618 24 205 4.8 17.7 0.00 0.00 0.00 46 1010.2
20260505192116 23 223 4.8 12.9 0.00 0.00 0.00 50 1010.2
20260505191614 23 190 3.2 12.9 0.00 0.00 0.00 50 1010.2
20260505191112 23 173 4.8 17.7 0.00 0.00 0.00 52 1010.5
20260505190609 23 238 3.2 17.7 0.00 0.00 0.00 54 1010.8
20260505190108 23 243 6.4 19.3 0.00 0.00 0.00 51 1010.8
20260505185608 23 244 8.0 19.3 0.00 0.00 0.00 49 1010.8
20260505185106 23 240 8.0 16.1 0.00 0.00 0.00 52 1010.8
20260505184605 23 134 1.6 12.9 0.00 0.00 0.00 51 1010.8
20260505184104 23 228 4.8 11.3 0.00 0.00 0.00 52 1011.2
20260505183603 23 175 1.6 12.9 0.00 0.00 0.00 52 1011.2
20260505183102 23 198 3.2 12.9 0.00 0.00 0.00 53 1011.5
20260505182601 23 153 3.2 12.9 0.00 0.00 0.00 53 1011.5
20260505182059 23 223 6.4 12.9 0.00 0.00 0.00 53 1011.5
20260505181558 23 213 4.8 12.9 0.00 0.00 0.00 52 1011.9
20260505181057 23 239 4.8 16.1 0.00 0.00 0.00 52 1011.9
20260505180555 23 242 4.8 16.1 0.00 0.00 0.00 53 1011.9
20260505180052 23 142 3.2 17.7 0.00 0.00 0.00 57 1011.9
20260505175551 23 221 3.2 17.7 0.00 0.00 0.00 53 1011.9
20260505175050 23 261 4.8 16.1 0.00 0.00 0.00 54 1012.2
20260505174549 22 230 6.4 16.1 0.00 0.00 0.00 55 1012.2
20260505174017 22 225 8.0 16.1 0.00 0.00 0.00 53 1012.2
20260505173516 22 211 3.2 16.1 0.00 0.00 0.00 56 1012.5
20260505173015 22 241 6.4 14.5 0.00 0.00 0.00 55 1012.5
20260505172512 22 104 6.4 14.5 0.00 0.00 0.00 57 1012.5
20260505172010 22 212 3.2 16.1 0.00 0.00 0.00 56 1012.5
20260505171436 22 241 9.7 16.1 0.00 0.00 0.00 53 1012.5
20260505170935 23 233 8.0 14.5 0.00 0.00 0.00 55 1012.9
20260505170434 23 195 4.8 16.1 0.00 0.00 0.00 56 1013.2
20260505165933 23 238 8.0 16.1 0.00 0.00 0.00 52 1013.2
20260505165432 22 169 1.6 12.9 0.00 0.00 0.00 60 1013.2
20260505164930 22 198 1.6 12.9 0.00 0.00 0.00 58 1013.2
20260505164429 22 188 3.2 14.5 0.00 0.00 0.00 59 1013.2
20260505163856 22 99 4.8 14.5 0.00 0.00 0.00 59 1013.2
20260505163355 22 248 4.8 11.3 0.00 0.00 0.00 58 1013.2
20260505162854 22 98 4.8 11.3 0.00 0.00 0.00 57 1013.2
20260505162353 22 96 3.2 11.3 0.00 0.00 0.00 58 1013.2
20260505161852 22 71 4.8 11.3 0.00 0.00 0.00 56 1013.2
20260505161350 22 196 0.0 4.8 0.00 0.00 0.00 60 1013.2
20260505160849 22 203 1.6 4.8 0.00 0.00 0.00 62 1013.2
20260505160346 21 283 1.6 4.8 0.00 0.00 0.00 61 1013.2
20260505153308 20 321 1.6 4.8 0.00 0.00 0.00 62 1013.5
20260505152807 20 296 1.6 4.8 0.00 0.00 0.00 64 1013.2
20260505152202 20 309 1.6 4.8 0.00 0.00 0.00 63 1013.2
20260505151701 20 311 3.2 4.8 0.00 0.00 0.00 63 1013.2
20260505151159 20 285 1.6 3.2 0.00 0.00 0.00 63 1013.2
20260505150658 20 276 1.6 3.2 0.00 0.00 0.00 64 1013.2
20260505150157 20 209 1.6 3.2 0.00 0.00 0.00 64 1013.2
20260505140612 17 234 3.2 8.0 0.00 0.00 0.00 65 1013.2
20260505140111 17 113 3.2 6.4 0.00 0.00 0.00 65 1013.2
20260505125019 13 137 0.0 1.6 0.00 0.00 0.00 87 1013.2
20260505124518 13 135 0.0 1.6 0.00 0.00 0.00 88 1013.2
20260505124017 13 136 0.0 1.6 0.00 0.00 0.00 89 1013.2
20260505123444 13 136 1.6 1.6 0.00 0.00 0.00 90 1013.2
20260505122943 12 135 1.6 1.6 0.00 0.00 0.00 90 1013.2
20260505122441 12 135 0.0 0.0 0.00 0.00 0.00 91 1013.2
20260505121908 11 135 0.0 0.0 0.00 0.00 0.00 92 1013.2
20260505121407 11 136 0.0 0.0 0.00 0.00 0.00 92 1013.2
20260505120906 11 135 0.0 0.0 0.00 0.00 0.00 93 1013.2
20260505120405 10 136 0.0 0.0 0.00 0.00 0.00 93 1013.2
20260505115904 10 136 0.0 0.0 0.00 0.00 0.00 94 1013.2
20260505115403 10 137 0.0 0.0 0.00 0.00 0.00 94 1013.2
20260505114902 10 135 0.0 0.0 0.00 0.00 0.00 94 1013.2
20260505114401 9 137 0.0 0.0 0.00 0.00 0.00 94 1013.2
20260505113900 9 136 0.0 0.0 0.00 0.00 0.00 94 1012.9
20260505113359 9 137 0.0 0.0 0.00 0.00 0.00 94 1012.9
20260505112857 8 136 0.0 0.0 0.00 0.00 0.00 94 1012.9
20260505112356 8 136 0.0 0.0 0.00 0.00 0.00 94 1012.9
20260505111855 8 136 0.0 0.0 0.00 0.00 0.00 94 1012.5
20260505111354 8 137 0.0 1.6 0.00 0.00 0.00 94 1012.5
20260505110851 8 137 0.0 1.6 0.00 0.00 0.00 94 1012.2
20260505110319 8 136 0.0 1.6 0.00 0.00 0.00 94 1012.2
20260505101803 9 137 0.0 1.6 0.00 0.00 0.00 93 1012.2
20260505101301 9 137 0.0 3.2 0.00 0.00 0.00 92 1012.2
20260505100800 9 137 1.6 3.2 0.00 0.00 0.00 92 1012.2
20260505100258 9 136 0.0 3.2 0.00 0.00 0.00 92 1012.2
20260505095757 9 136 0.0 3.2 0.00 0.00 0.00 92 1012.2
20260505095256 9 111 0.0 1.6 0.00 0.00 0.00 92 1012.2
20260505094755 9 111 0.0 1.6 0.00 0.00 0.00 92 1012.2
20260505094254 9 111 0.0 1.6 0.00 0.00 0.00 92 1012.2
20260505093753 9 112 0.0 1.6 0.00 0.00 0.00 92 1012.2
20260505093252 9 111 0.0 1.6 0.00 0.00 0.00 91 1011.9
20260505092752 10 112 0.0 1.6 0.00 0.00 0.00 91 1011.9
20260505092219 10 111 0.0 1.6 0.00 0.00 0.00 91 1012.2
20260505091718 10 111 0.0 1.6 0.00 0.00 0.00 91 1012.2
20260505091146 10 111 0.0 1.6 0.00 0.00 0.00 91 1011.9
20260505090643 10 111 0.0 1.6 0.00 0.00 0.00 91 1011.9
20260505090142 10 111 0.0 1.6 0.00 0.00 0.00 92 1011.9
20260505085640 10 112 0.0 1.6 0.00 0.00 0.00 91 1011.9
20260505085138 10 112 0.0 0.0 0.00 0.00 0.00 91 1011.9
20260505084637 10 112 0.0 0.0 0.00 0.00 0.00 91 1011.9
20260505084136 10 112 0.0 0.0 0.00 0.00 0.00 91 1011.5
20260505083635 10 111 0.0 0.0 0.00 0.00 0.00 90 1011.9
20260505083133 10 112 0.0 1.6 0.00 0.00 0.00 90 1011.9
20260505082632 10 112 0.0 1.6 0.00 0.00 0.00 90 1011.9
20260505082131 10 112 0.0 1.6 0.00 0.00 0.00 90 1011.9
20260505081629 10 112 0.0 1.6 0.00 0.00 0.00 90 1011.9
20260505081128 10 112 0.0 0.0 0.00 0.00 0.00 90 1011.9
20260505080627 10 112 0.0 0.0 0.00 0.00 0.00 90 1011.9
20260505080126 10 112 0.0 0.0 0.00 0.00 0.00 89 1011.9
20260505075626 10 112 0.0 1.6 0.00 0.00 0.00 89 1011.5
20260505075125 10 111 0.0 1.6 0.00 0.00 0.00 88 1011.9
20260505074623 10 111 0.0 1.6 0.00 0.00 0.00 88 1011.9
20260505074122 11 112 0.0 1.6 0.00 0.00 0.00 88 1011.9
20260505073620 11 110 0.0 1.6 0.00 0.00 0.00 87 1011.5
20260505073048 11 110 0.0 1.6 0.00 0.00 0.00 87 1011.5
20260505072546 11 110 0.0 1.6 0.00 0.00 0.00 87 1011.5
20260505072045 11 134 0.0 1.6 0.00 0.00 0.00 87 1011.5
20260505071544 11 134 1.6 1.6 0.00 0.00 0.00 87 1011.5
20260505071042 11 134 0.0 1.6 0.00 0.00 0.00 87 1011.9
20260505070541 11 134 1.6 1.6 0.00 0.00 0.00 87 1011.5
20260505070040 11 111 0.0 1.6 0.00 0.00 0.00 87 1011.5
20260505065436 11 112 0.0 1.6 0.00 0.00 0.00 86 1011.5
20260505064935 11 111 0.0 0.0 0.00 0.00 0.00 86 1011.9
20260505064432 11 111 0.0 0.0 0.00 0.00 0.00 86 1011.9
20260505063931 11 112 0.0 0.0 0.00 0.00 0.00 85 1011.9
20260505063430 11 111 0.0 0.0 0.00 0.00 0.00 84 1011.9
20260505062929 11 112 0.0 0.0 0.00 0.00 0.00 84 1011.9
20260505062427 12 112 0.0 0.0 0.00 0.00 0.00 83 1011.9
20260505061926 12 112 0.0 0.0 0.00 0.00 0.00 83 1011.9
20260505061425 12 111 0.0 0.0 0.00 0.00 0.00 82 1011.9
20260505060924 12 111 0.0 0.0 0.00 0.00 0.00 81 1011.9
20260505060422 12 112 0.0 0.0 0.00 0.00 0.00 80 1011.9
20260505055921 12 111 0.0 0.0 0.00 0.00 0.00 79 1011.9
20260505055420 13 112 0.0 0.0 0.00 0.00 0.00 78 1011.9
20260505054918 13 111 0.0 0.0 0.00 0.00 0.00 78 1012.2
20260505054417 13 112 0.0 0.0 0.00 0.00 0.00 76 1011.9
20260505053916 13 112 0.0 1.6 0.00 0.00 0.00 76 1011.9
20260505053415 13 112 0.0 3.2 0.00 0.00 0.00 75 1011.9
20260505052913 14 112 0.0 3.2 0.00 0.00 0.00 75 1011.9
20260505052412 14 120 1.6 3.2 0.00 0.00 0.00 75 1011.9
20260505051838 14 132 1.6 3.2 0.00 0.00 0.00 75 1011.9
20260505051337 13 141 1.6 3.2 0.00 0.00 0.00 75 1011.5
20260505050836 13 152 1.6 3.2 0.00 0.00 0.00 76 1011.5
20260505050335 13 155 1.6 3.2 0.00 0.00 0.00 75 1011.5
20260505041549 13 145 1.6 3.2 0.00 0.00 0.00 75 1011.2
20260505041048 14 148 1.6 3.2 0.00 0.00 0.00 75 1011.5
20260505040546 14 148 1.6 3.2 0.00 0.00 0.00 75 1011.2
20260505040044 14 148 1.6 3.2 0.00 0.00 0.00 74 1011.5
20260505035511 14 148 1.6 3.2 0.00 0.00 0.00 74 1011.5
20260505035008 14 148 1.6 3.2 0.00 0.00 0.00 73 1011.5
20260505034506 14 148 1.6 1.6 0.00 0.00 0.00 73 1011.5
20260505033934 15 148 1.6 1.6 0.00 0.00 0.00 72 1011.5
20260505033433 15 148 1.6 1.6 0.00 0.00 0.00 72 1011.5
20260505032931 15 148 1.6 1.6 0.00 0.00 0.00 72 1011.5
20260505032430 15 148 0.0 1.6 0.00 0.00 0.00 71 1011.5
20260505031928 15 149 1.6 1.6 0.00 0.00 0.00 71 1011.5
20260505031427 15 149 1.6 1.6 0.00 0.00 0.00 70 1011.5
20260505030926 16 149 1.6 1.6 0.00 0.00 0.00 70 1011.5
20260505030425 16 150 0.0 3.2 0.00 0.00 0.00 68 1011.5
20260505025853 16 149 0.0 3.2 0.00 0.00 0.00 67 1011.5
20260505025352 16 149 1.6 3.2 0.00 0.00 0.00 65 1011.5
20260505024850 17 149 1.6 3.2 0.00 0.00 0.00 65 1011.5
20260505024349 17 138 1.6 3.2 0.00 0.00 0.00 64 1011.2
20260505023849 17 125 1.6 3.2 0.00 0.00 0.00 64 1011.5
20260505023347 17 139 1.6 4.8 0.00 0.00 0.00 65 1011.5
20260505022846 17 131 1.6 4.8 0.00 0.00 0.00 63 1011.2
20260505022344 17 140 1.6 4.8 0.00 0.00 0.00 64 1011.2
20260505021843 17 172 3.2 4.8 0.00 0.00 0.00 64 1011.2
20260505021309 17 136 1.6 4.8 0.00 0.00 0.00 65 1011.2
20260505020807 17 152 1.6 8.0 0.00 0.00 0.00 65 1011.2
20260505020306 17 134 1.6 8.0 0.00 0.00 0.00 64 1011.2
20260505015805 17 135 1.6 9.7 0.00 0.00 0.00 63 1011.2
20260505015159 17 192 3.2 9.7 0.00 0.00 0.00 63 1011.2
20260505014657 17 161 1.6 4.8 0.00 0.00 0.00 65 1011.2
20260505014156 18 137 1.6 3.2 0.00 0.00 0.00 64 1011.2
20260505013654 18 131 1.6 4.8 0.00 0.00 0.00 64 1011.2
20260505013153 18 144 1.6 4.8 0.00 0.00 0.00 63 1011.2
20260505012653 18 190 1.6 4.8 0.00 0.00 0.00 62 1011.2